Time,TemperatureF,DewpointF,PressureIn,WindDirection,WindDirectionDegrees,WindSpeedMPH,WindSpeedGustMPH,Humidity,HourlyPrecipIn,Conditions,Clouds,dailyrainin,SoftwareType,DateUTC
2013-10-07 00:01:00,50.7,47.8,29.21,NW,316,2.0,13.0,90,0.00,,,0.00,meteohub,2013-10-07 05:01:00,
2013-10-07 00:06:00,50.7,47.8,29.22,WNW,302,9.0,13.0,90,0.00,,,0.00,meteohub,2013-10-07 05:06:00,
2013-10-07 00:11:00,50.7,47.8,29.22,NW,306,5.0,11.0,90,0.00,,,0.00,meteohub,2013-10-07 05:11:00,
2013-10-07 00:16:00,50.7,47.8,29.22,NW,311,1.0,11.0,90,0.00,,,0.00,meteohub,2013-10-07 05:16:00,
2013-10-07 00:21:00,50.7,47.8,29.22,NW,325,0.0,11.0,90,0.00,,,0.00,meteohub,2013-10-07 05:21:00,
2013-10-07 00:26:00,50.7,47.8,29.22,West,272,1.0,10.0,90,0.00,,,0.00,meteohub,2013-10-07 05:26:00,
2013-10-07 00:31:00,50.7,47.7,29.22,NW,305,1.0,10.0,89,0.00,,,0.00,meteohub,2013-10-07 05:31:00,
2013-10-07 00:36:00,50.7,47.7,29.23,North,0,3.0,9.0,89,0.00,,,0.00,meteohub,2013-10-07 05:36:00,
2013-10-07 00:41:00,50.9,47.8,29.23,West,265,0.0,10.0,89,0.00,,,0.00,meteohub,2013-10-07 05:41:00,
2013-10-07 00:46:00,50.9,47.8,29.23,NW,309,7.0,10.0,89,0.00,,,0.00,meteohub,2013-10-07 05:46:00,
2013-10-07 00:51:00,50.9,47.8,29.23,WNW,294,5.0,10.0,89,0.00,,,0.00,meteohub,2013-10-07 05:51:00,
2013-10-07 00:57:00,50.9,47.8,29.23,West,274,8.0,9.0,89,0.00,,,0.00,meteohub,2013-10-07 05:57:00,
2013-10-07 01:02:00,50.7,47.8,29.23,NW,314,4.0,11.0,90,0.00,,,0.00,meteohub,2013-10-07 06:02:00,
2013-10-07 01:07:00,50.7,47.8,29.23,WNW,289,7.0,12.0,90,0.00,,,0.00,meteohub,2013-10-07 06:07:00,
2013-10-07 01:12:00,50.5,47.7,29.23,WNW,288,3.0,12.0,90,0.00,,,0.00,meteohub,2013-10-07 06:12:00,
2013-10-07 01:17:00,50.5,47.7,29.23,WNW,300,4.0,12.0,90,0.00,,,0.00,meteohub,2013-10-07 06:17:00,
2013-10-07 01:22:00,50.5,47.7,29.23,NW,322,5.0,12.0,90,0.00,,,0.00,meteohub,2013-10-07 06:22:00,
2013-10-07 01:27:00,50.5,47.7,29.23,WNW,293,3.0,11.0,90,0.00,,,0.00,meteohub,2013-10-07 06:27:00,
2013-10-07 01:32:00,50.5,47.7,29.23,NW,316,7.0,9.0,90,0.00,,,0.00,meteohub,2013-10-07 06:32:00,
2013-10-07 01:37:00,50.5,47.5,29.23,West,271,5.0,9.0,89,0.00,,,0.00,meteohub,2013-10-07 06:37:00,
2013-10-07 01:42:00,50.5,47.5,29.23,NW,312,0.0,10.0,89,0.00,,,0.00,meteohub,2013-10-07 06:42:00,
2013-10-07 01:47:00,50.5,47.5,29.23,NNW,331,0.0,10.0,89,0.00,,,0.00,meteohub,2013-10-07 06:47:00,
2013-10-07 01:52:00,50.7,47.7,29.24,NW,308,0.0,10.0,89,0.00,,,0.00,meteohub,2013-10-07 06:52:00,
2013-10-07 01:57:00,50.7,47.3,29.24,NW,310,10.0,10.0,88,0.00,,,0.00,meteohub,2013-10-07 06:57:00,
2013-10-07 02:02:00,50.9,47.5,29.24,NW,306,4.0,12.0,88,0.00,,,0.00,meteohub,2013-10-07 07:02:00,
2013-10-07 02:07:00,51.1,47.7,29.25,WSW,257,0.0,12.0,88,0.00,,,0.00,meteohub,2013-10-07 07:07:00,
2013-10-07 02:12:00,51.1,47.7,29.25,NW,306,5.0,12.0,88,0.00,,,0.00,meteohub,2013-10-07 07:12:00,
2013-10-07 02:17:00,51.1,47.3,29.25,NW,318,1.0,11.0,87,0.00,,,0.00,meteohub,2013-10-07 07:17:00,
2013-10-07 02:22:00,51.1,47.3,29.25,NW,319,0.0,10.0,87,0.00,,,0.00,meteohub,2013-10-07 07:22:00,
2013-10-07 02:27:00,51.1,47.3,29.25,NW,311,0.0,7.0,87,0.00,,,0.00,meteohub,2013-10-07 07:27:00,
2013-10-07 02:32:00,51.3,47.5,29.25,WNW,296,5.0,9.0,87,0.00,,,0.00,meteohub,2013-10-07 07:32:00,
2013-10-07 02:37:00,51.3,47.5,29.25,NW,315,3.0,9.0,87,0.00,,,0.00,meteohub,2013-10-07 07:37:00,
2013-10-07 02:42:00,51.3,47.3,29.25,NW,314,6.0,10.0,86,0.00,,,0.00,meteohub,2013-10-07 07:42:00,
2013-10-07 02:47:00,51.3,47.3,29.25,NW,306,4.0,12.0,86,0.00,,,0.00,meteohub,2013-10-07 07:47:00,
2013-10-07 02:52:00,51.3,47.3,29.25,WNW,284,0.0,12.0,86,0.00,,,0.00,meteohub,2013-10-07 07:52:00,
2013-10-07 02:57:00,51.3,47.3,29.25,WNW,288,1.0,12.0,86,0.00,,,0.00,meteohub,2013-10-07 07:57:00,
2013-10-07 03:02:00,51.3,47.3,29.25,NW,313,0.0,12.0,86,0.00,,,0.00,meteohub,2013-10-07 08:02:00,
2013-10-07 03:07:00,51.3,47.3,29.25,WNW,292,9.0,10.0,86,0.00,,,0.00,meteohub,2013-10-07 08:07:00,
2013-10-07 03:12:00,51.3,46.9,29.25,WNW,296,3.0,11.0,85,0.00,,,0.00,meteohub,2013-10-07 08:12:00,
2013-10-07 03:17:00,51.3,46.9,29.25,WNW,295,4.0,12.0,85,0.00,,,0.00,meteohub,2013-10-07 08:17:00,
2013-10-07 03:22:00,51.3,46.9,29.25,WNW,296,12.0,16.0,85,0.00,,,0.00,meteohub,2013-10-07 08:22:00,
2013-10-07 03:27:00,51.3,46.6,29.25,NNW,341,6.0,16.0,84,0.00,,,0.00,meteohub,2013-10-07 08:27:00,
2013-10-07 03:32:00,51.3,46.6,29.25,NW,315,3.0,16.0,84,0.00,,,0.00,meteohub,2013-10-07 08:32:00,
2013-10-07 03:37:00,51.3,46.6,29.25,NW,306,0.0,13.0,84,0.00,,,0.00,meteohub,2013-10-07 08:37:00,
2013-10-07 03:42:00,51.3,46.6,29.25,NW,314,3.0,12.0,84,0.00,,,0.00,meteohub,2013-10-07 08:42:00,
2013-10-07 03:47:00,51.3,46.6,29.25,NNW,330,4.0,10.0,84,0.00,,,0.00,meteohub,2013-10-07 08:47:00,
2013-10-07 03:52:00,51.3,46.6,29.26,West,265,5.0,9.0,84,0.00,,,0.00,meteohub,2013-10-07 08:52:00,
2013-10-07 03:57:00,51.1,46.4,29.25,WNW,300,4.0,10.0,84,0.00,,,0.00,meteohub,2013-10-07 08:57:00,
2013-10-07 04:02:00,51.1,46.8,29.26,NW,323,0.0,10.0,85,0.00,,,0.00,meteohub,2013-10-07 09:02:00,
2013-10-07 04:07:00,51.1,46.8,29.26,WNW,291,2.0,10.0,85,0.00,,,0.00,meteohub,2013-10-07 09:07:00,
2013-10-07 04:12:00,51.1,46.8,29.27,NNW,336,6.0,10.0,85,0.00,,,0.00,meteohub,2013-10-07 09:12:00,
2013-10-07 04:17:00,51.1,46.8,29.27,West,279,6.0,12.0,85,0.00,,,0.00,meteohub,2013-10-07 09:17:00,
2013-10-07 04:22:00,51.1,46.8,29.27,NW,319,3.0,12.0,85,0.00,,,0.00,meteohub,2013-10-07 09:22:00,
2013-10-07 04:27:00,51.1,46.4,29.28,WNW,292,10.0,12.0,84,0.00,,,0.00,meteohub,2013-10-07 09:27:00,
2013-10-07 04:32:00,51.1,46.8,29.28,NW,309,5.0,14.0,85,0.00,,,0.00,meteohub,2013-10-07 09:32:00,
2013-10-07 04:37:00,51.1,46.4,29.28,NW,314,0.0,14.0,84,0.00,,,0.00,meteohub,2013-10-07 09:37:00,
2013-10-07 04:42:00,51.1,46.8,29.28,NNW,346,5.0,14.0,85,0.00,,,0.00,meteohub,2013-10-07 09:42:00,
2013-10-07 04:47:00,51.1,46.8,29.28,NW,308,0.0,9.0,85,0.00,,,0.00,meteohub,2013-10-07 09:47:00,
2013-10-07 04:52:00,51.1,46.8,29.28,NW,322,11.0,11.0,85,0.00,,,0.00,meteohub,2013-10-07 09:52:00,
2013-10-07 04:57:00,51.1,46.8,29.29,NW,311,6.0,11.0,85,0.00,,,0.00,meteohub,2013-10-07 09:57:00,
2013-10-07 05:02:00,51.1,46.8,29.29,West,269,1.0,11.0,85,0.00,,,0.00,meteohub,2013-10-07 10:02:00,
2013-10-07 05:07:00,51.1,46.8,29.28,WNW,301,2.0,11.0,85,0.00,,,0.00,meteohub,2013-10-07 10:07:00,
2013-10-07 05:12:00,51.1,46.8,29.28,WNW,297,4.0,10.0,85,0.00,,,0.00,meteohub,2013-10-07 10:12:00,
2013-10-07 05:17:00,51.1,46.8,29.29,NW,306,3.0,10.0,85,0.00,,,0.00,meteohub,2013-10-07 10:17:00,
2013-10-07 05:22:00,51.1,46.8,29.29,NW,309,0.0,10.0,85,0.00,,,0.00,meteohub,2013-10-07 10:22:00,
2013-10-07 05:27:00,51.1,46.8,29.29,WNW,301,0.0,10.0,85,0.00,,,0.00,meteohub,2013-10-07 10:27:00,
2013-10-07 05:32:00,51.3,46.9,29.29,WNW,303,3.0,6.0,85,0.00,,,0.00,meteohub,2013-10-07 10:32:00,
2013-10-07 05:37:00,51.3,46.9,29.29,NW,311,0.0,9.0,85,0.00,,,0.00,meteohub,2013-10-07 10:37:00,
2013-10-07 05:42:00,51.3,46.9,29.29,NW,307,4.0,9.0,85,0.00,,,0.00,meteohub,2013-10-07 10:42:00,
2013-10-07 05:47:00,51.3,46.9,29.29,NNW,334,0.0,9.0,85,0.00,,,0.00,meteohub,2013-10-07 10:47:00,
2013-10-07 05:52:00,51.3,46.9,29.29,WNW,288,4.0,9.0,85,0.00,,,0.00,meteohub,2013-10-07 10:52:00,
2013-10-07 05:57:00,51.4,47.1,29.29,NW,310,0.0,9.0,85,0.00,,,0.00,meteohub,2013-10-07 10:57:00,
2013-10-07 06:02:00,51.4,47.5,29.29,NW,319,3.0,9.0,86,0.00,,,0.00,meteohub,2013-10-07 11:02:00,
2013-10-07 06:07:00,51.4,47.5,29.29,WNW,301,3.0,10.0,86,0.00,,,0.00,meteohub,2013-10-07 11:07:00,
2013-10-07 06:12:00,51.4,47.1,29.29,NNW,327,3.0,11.0,85,0.00,,,0.00,meteohub,2013-10-07 11:12:00,
2013-10-07 06:17:00,51.6,47.3,29.30,NW,317,5.0,12.0,85,0.00,,,0.00,meteohub,2013-10-07 11:17:00,
2013-10-07 06:22:00,51.6,47.3,29.30,NW,315,2.0,12.0,85,0.00,,,0.00,meteohub,2013-10-07 11:22:00,
2013-10-07 06:27:00,51.6,47.3,29.31,NW,315,2.0,12.0,85,0.00,,,0.00,meteohub,2013-10-07 11:27:00,
2013-10-07 06:32:00,51.6,47.3,29.31,NW,316,3.0,7.0,85,0.00,,,0.00,meteohub,2013-10-07 11:32:00,
2013-10-07 06:37:00,51.6,47.3,29.32,NW,316,3.0,5.0,85,0.00,,,0.00,meteohub,2013-10-07 11:37:00,
2013-10-07 06:42:00,51.6,47.5,29.32,NW,316,3.0,5.0,86,0.00,,,0.00,meteohub,2013-10-07 11:42:00,
2013-10-07 06:47:00,51.6,47.5,29.32,NW,315,1.0,5.0,86,0.00,,,0.00,meteohub,2013-10-07 11:47:00,
2013-10-07 06:52:00,51.6,47.3,29.32,WNW,300,5.0,7.0,85,0.00,,,0.00,meteohub,2013-10-07 11:52:00,
2013-10-07 06:57:00,51.6,47.3,29.32,NW,306,2.0,7.0,85,0.00,,,0.00,meteohub,2013-10-07 11:57:00,
2013-10-07 07:02:00,51.6,47.3,29.32,WNW,298,4.0,7.0,85,0.00,,,0.00,meteohub,2013-10-07 12:02:00,
2013-10-07 07:07:00,51.4,47.5,29.32,North,0,0.0,7.0,86,0.00,,,0.00,meteohub,2013-10-07 12:07:00,
2013-10-07 07:12:00,51.4,47.5,29.32,NW,320,0.0,7.0,86,0.00,,,0.00,meteohub,2013-10-07 12:12:00,
2013-10-07 07:17:00,51.4,47.5,29.33,NW,320,0.0,7.0,86,0.00,,,0.00,meteohub,2013-10-07 12:17:00,
2013-10-07 07:22:00,51.3,47.3,29.33,NW,320,4.0,7.0,86,0.00,,,0.00,meteohub,2013-10-07 12:22:00,
2013-10-07 07:27:00,51.3,47.3,29.33,NW,320,0.0,5.0,86,0.00,,,0.00,meteohub,2013-10-07 12:27:00,
2013-10-07 07:32:00,51.1,47.1,29.34,NW,320,0.0,5.0,86,0.00,,,0.00,meteohub,2013-10-07 12:32:00,
2013-10-07 07:37:00,50.9,46.9,29.34,West,265,1.0,5.0,86,0.00,,,0.00,meteohub,2013-10-07 12:37:00,
2013-10-07 07:42:00,50.9,47.1,29.34,West,263,0.0,7.0,87,0.00,,,0.00,meteohub,2013-10-07 12:42:00,
2013-10-07 07:47:00,50.9,47.1,29.34,West,263,0.0,7.0,87,0.00,,,0.00,meteohub,2013-10-07 12:47:00,
2013-10-07 07:52:00,50.7,46.9,29.34,WNW,290,0.0,7.0,87,0.00,,,0.00,meteohub,2013-10-07 12:52:00,
2013-10-07 07:57:00,50.7,47.3,29.34,WNW,288,3.0,5.0,88,0.00,,,0.00,meteohub,2013-10-07 12:57:00,
2013-10-07 08:02:00,50.7,47.3,29.35,West,267,2.0,5.0,88,0.00,,,0.00,meteohub,2013-10-07 13:02:00,
2013-10-07 08:07:00,50.7,47.3,29.35,WSW,248,3.0,7.0,88,0.00,,,0.00,meteohub,2013-10-07 13:07:00,
2013-10-07 08:12:00,50.7,47.3,29.35,WNW,284,6.0,8.0,88,0.00,,,0.00,meteohub,2013-10-07 13:12:00,
2013-10-07 08:17:00,51.1,47.7,29.36,West,267,7.0,13.0,88,0.00,,,0.00,meteohub,2013-10-07 13:17:00,
2013-10-07 08:22:00,51.1,47.7,29.36,West,266,1.0,13.0,88,0.00,,,0.00,meteohub,2013-10-07 13:22:00,
2013-10-07 08:27:00,51.3,47.5,29.36,West,275,5.0,13.0,87,0.00,,,0.00,meteohub,2013-10-07 13:27:00,
2013-10-07 08:32:00,51.4,47.7,29.36,WSW,257,5.0,12.0,87,0.00,,,0.00,meteohub,2013-10-07 13:32:00,
2013-10-07 08:37:00,51.6,47.5,29.37,WNW,302,0.0,12.0,86,0.00,,,0.00,meteohub,2013-10-07 13:37:00,
2013-10-07 08:42:00,52.0,47.8,29.37,WNW,284,4.0,11.0,86,0.00,,,0.00,meteohub,2013-10-07 13:42:00,
2013-10-07 08:47:00,52.2,47.8,29.37,West,269,6.0,12.0,85,0.00,,,0.00,meteohub,2013-10-07 13:47:00,
2013-10-07 08:52:00,52.3,48.0,29.37,West,277,5.0,12.0,85,0.00,,,0.00,meteohub,2013-10-07 13:52:00,
2013-10-07 08:57:00,52.5,47.8,29.38,NW,315,0.0,12.0,84,0.00,,,0.00,meteohub,2013-10-07 13:57:00,
2013-10-07 09:02:00,52.5,47.8,29.37,West,259,3.0,12.0,84,0.00,,,0.00,meteohub,2013-10-07 14:02:00,
2013-10-07 09:07:00,53.1,48.0,29.38,WNW,292,2.0,12.0,83,0.00,,,0.00,meteohub,2013-10-07 14:07:00,
2013-10-07 09:12:00,53.2,47.8,29.38,NW,310,4.0,10.0,82,0.00,,,0.00,meteohub,2013-10-07 14:12:00,
2013-10-07 09:17:00,53.2,47.8,29.39,WNW,300,2.0,12.0,82,0.00,,,0.00,meteohub,2013-10-07 14:17:00,
2013-10-07 09:22:00,53.8,48.0,29.38,WNW,300,0.0,12.0,81,0.00,,,0.00,meteohub,2013-10-07 14:22:00,
2013-10-07 09:27:00,54.3,48.2,29.39,WSW,248,3.0,12.0,80,0.00,,,0.00,meteohub,2013-10-07 14:27:00,
2013-10-07 09:32:00,54.5,48.2,29.39,West,267,4.0,10.0,79,0.00,,,0.00,meteohub,2013-10-07 14:32:00,
2013-10-07 09:37:00,54.5,48.2,29.39,West,263,0.0,12.0,79,0.00,,,0.00,meteohub,2013-10-07 14:37:00,
2013-10-07 09:42:00,54.9,48.6,29.39,SW,234,5.0,12.0,79,0.00,,,0.00,meteohub,2013-10-07 14:42:00,
2013-10-07 09:47:00,54.9,48.2,29.39,West,278,2.0,12.0,78,0.00,,,0.00,meteohub,2013-10-07 14:47:00,
2013-10-07 09:52:00,55.0,48.4,29.39,SW,232,6.0,9.0,78,0.00,,,0.00,meteohub,2013-10-07 14:52:00,
2013-10-07 09:57:00,55.4,48.4,29.39,WSW,239,6.0,7.0,77,0.00,,,0.00,meteohub,2013-10-07 14:57:00,
2013-10-07 10:02:00,55.9,48.9,29.39,WSW,250,5.0,12.0,77,0.00,,,0.00,meteohub,2013-10-07 15:02:00,
2013-10-07 10:07:00,56.3,48.6,29.40,WSW,247,0.0,12.0,75,0.00,,,0.00,meteohub,2013-10-07 15:07:00,
2013-10-07 10:12:00,56.7,48.7,29.40,WSW,248,4.0,12.0,75,0.00,,,0.00,meteohub,2013-10-07 15:12:00,
2013-10-07 10:17:00,56.7,48.7,29.40,West,263,3.0,9.0,75,0.00,,,0.00,meteohub,2013-10-07 15:17:00,
2013-10-07 10:22:00,57.0,48.7,29.41,SW,236,0.0,10.0,74,0.00,,,0.00,meteohub,2013-10-07 15:22:00,
2013-10-07 10:27:00,57.6,48.6,29.41,West,262,2.0,10.0,72,0.00,,,0.00,meteohub,2013-10-07 15:27:00,
2013-10-07 10:32:00,57.6,48.6,29.41,WNW,296,0.0,10.0,72,0.00,,,0.00,meteohub,2013-10-07 15:32:00,
2013-10-07 10:37:00,57.9,48.9,29.41,NW,307,0.0,9.0,72,0.00,,,0.00,meteohub,2013-10-07 15:37:00,
2013-10-07 10:42:00,58.3,48.9,29.41,West,260,0.0,9.0,71,0.00,,,0.00,meteohub,2013-10-07 15:42:00,
2013-10-07 10:47:00,58.1,48.7,29.42,WSW,248,5.0,9.0,71,0.00,,,0.00,meteohub,2013-10-07 15:47:00,
2013-10-07 10:52:00,58.5,49.1,29.42,SW,236,3.0,7.0,71,0.00,,,0.00,meteohub,2013-10-07 15:52:00,
2013-10-07 10:57:00,58.6,48.9,29.42,SW,233,0.0,9.0,70,0.00,,,0.00,meteohub,2013-10-07 15:57:00,
2013-10-07 11:03:00,59.2,49.1,29.42,WNW,293,4.0,9.0,69,0.00,,,0.00,meteohub,2013-10-07 16:03:00,
2013-10-07 11:08:00,59.7,48.7,29.42,WNW,294,0.0,7.0,67,0.00,,,0.00,meteohub,2013-10-07 16:08:00,
2013-10-07 11:13:00,60.3,48.4,29.42,WNW,283,0.0,7.0,65,0.00,,,0.00,meteohub,2013-10-07 16:13:00,
2013-10-07 11:18:00,60.3,48.4,29.42,WSW,250,0.0,7.0,65,0.00,,,0.00,meteohub,2013-10-07 16:18:00,
2013-10-07 11:23:00,60.4,48.2,29.42,West,265,5.0,7.0,64,0.00,,,0.00,meteohub,2013-10-07 16:23:00,
2013-10-07 11:28:00,60.4,48.6,29.42,WNW,297,0.0,9.0,65,0.00,,,0.00,meteohub,2013-10-07 16:28:00,
2013-10-07 11:33:00,61.2,48.0,29.42,West,280,0.0,9.0,62,0.00,,,0.00,meteohub,2013-10-07 16:33:00,
2013-10-07 11:38:00,61.3,47.8,29.42,West,268,0.0,9.0,61,0.00,,,0.00,meteohub,2013-10-07 16:38:00,
2013-10-07 11:43:00,61.3,48.2,29.42,WSW,248,4.0,9.0,62,0.00,,,0.00,meteohub,2013-10-07 16:43:00,
2013-10-07 11:48:00,62.2,48.6,29.42,WSW,243,0.0,9.0,61,0.00,,,0.00,meteohub,2013-10-07 16:48:00,
2013-10-07 11:53:00,62.2,48.2,29.42,WSW,254,0.0,10.0,60,0.00,,,0.00,meteohub,2013-10-07 16:53:00,
2013-10-07 11:58:00,62.2,48.6,29.42,West,267,2.0,10.0,61,0.00,,,0.00,meteohub,2013-10-07 16:58:00,
2013-10-07 12:03:00,62.6,48.0,29.42,WSW,250,0.0,10.0,59,0.00,,,0.00,meteohub,2013-10-07 17:03:00,
2013-10-07 12:08:00,62.8,47.3,29.42,WNW,282,4.0,7.0,57,0.00,,,0.00,meteohub,2013-10-07 17:08:00,
2013-10-07 12:13:00,63.3,47.3,29.42,WNW,299,2.0,7.0,56,0.00,,,0.00,meteohub,2013-10-07 17:13:00,
2013-10-07 12:18:00,63.3,47.8,29.42,SW,221,5.0,9.0,57,0.00,,,0.00,meteohub,2013-10-07 17:18:00,
2013-10-07 12:23:00,63.1,47.7,29.42,SSW,206,0.0,10.0,57,0.00,,,0.00,meteohub,2013-10-07 17:23:00,
2013-10-07 12:28:00,63.7,47.3,29.42,WNW,292,0.0,10.0,55,0.00,,,0.00,meteohub,2013-10-07 17:28:00,
2013-10-07 12:33:00,64.2,47.3,29.42,WSW,257,1.0,7.0,54,0.00,,,0.00,meteohub,2013-10-07 17:33:00,
2013-10-07 12:38:00,64.2,47.3,29.42,West,274,0.0,7.0,54,0.00,,,0.00,meteohub,2013-10-07 17:38:00,
2013-10-07 12:43:00,64.4,46.4,29.42,NNE,13,1.0,7.0,52,0.00,,,0.00,meteohub,2013-10-07 17:43:00,
2013-10-07 12:48:00,64.6,46.6,29.41,WNW,297,0.0,6.0,52,0.00,,,0.00,meteohub,2013-10-07 17:48:00,
2013-10-07 12:53:00,65.5,47.8,29.41,WSW,250,4.0,4.0,53,0.00,,,0.00,meteohub,2013-10-07 17:53:00,
2013-10-07 12:58:00,65.5,46.9,29.41,WNW,298,7.0,7.0,51,0.00,,,0.00,meteohub,2013-10-07 17:58:00,
2013-10-07 13:03:00,65.5,46.4,29.41,SW,227,0.0,10.0,50,0.00,,,0.00,meteohub,2013-10-07 18:03:00,
2013-10-07 13:09:00,65.3,46.2,29.41,West,267,2.0,10.0,50,0.00,,,0.00,meteohub,2013-10-07 18:09:00,
2013-10-07 13:14:00,65.8,46.8,29.40,SW,236,0.0,10.0,50,0.00,,,0.00,meteohub,2013-10-07 18:14:00,
2013-10-07 13:19:00,66.4,46.0,29.40,WSW,248,4.0,10.0,48,0.00,,,0.00,meteohub,2013-10-07 18:19:00,
2013-10-07 13:24:00,66.4,46.0,29.40,West,263,4.0,11.0,48,0.00,,,0.00,meteohub,2013-10-07 18:24:00,
2013-10-07 13:29:00,66.6,46.2,29.40,WSW,251,4.0,11.0,48,0.00,,,0.00,meteohub,2013-10-07 18:29:00,
2013-10-07 13:34:00,66.9,46.0,29.40,WNW,283,0.0,11.0,47,0.00,,,0.00,meteohub,2013-10-07 18:34:00,
2013-10-07 13:39:00,67.3,46.4,29.40,WSW,246,4.0,11.0,47,0.00,,,0.00,meteohub,2013-10-07 18:39:00,
2013-10-07 13:44:00,67.5,46.0,29.40,West,265,1.0,11.0,46,0.00,,,0.00,meteohub,2013-10-07 18:44:00,
2013-10-07 13:49:00,67.5,46.6,29.39,WNW,300,4.0,9.0,47,0.00,,,0.00,meteohub,2013-10-07 18:49:00,
2013-10-07 13:54:00,67.5,46.0,29.39,NNW,332,1.0,8.0,46,0.00,,,0.00,meteohub,2013-10-07 18:54:00,
2013-10-07 13:59:00,68.0,45.9,29.39,NNW,347,1.0,9.0,45,0.00,,,0.00,meteohub,2013-10-07 18:59:00,
2013-10-07 14:04:00,68.4,46.2,29.39,WSW,245,4.0,12.0,45,0.00,,,0.00,meteohub,2013-10-07 19:04:00,
2013-10-07 14:09:00,68.4,46.2,29.39,WSW,242,1.0,12.0,45,0.00,,,0.00,meteohub,2013-10-07 19:09:00,
2013-10-07 14:14:00,68.7,45.9,29.39,West,263,3.0,14.0,44,0.00,,,0.00,meteohub,2013-10-07 19:14:00,
2013-10-07 14:19:00,68.7,45.9,29.39,WSW,238,2.0,14.0,44,0.00,,,0.00,meteohub,2013-10-07 19:19:00,
2013-10-07 14:24:00,69.1,45.7,29.39,West,269,4.0,14.0,43,0.00,,,0.00,meteohub,2013-10-07 19:24:00,
2013-10-07 14:29:00,69.3,46.4,29.39,WNW,293,0.0,12.0,44,0.00,,,0.00,meteohub,2013-10-07 19:29:00,
2013-10-07 14:34:00,69.6,46.2,29.39,NW,310,3.0,12.0,43,0.00,,,0.00,meteohub,2013-10-07 19:34:00,
2013-10-07 14:39:00,69.4,45.3,29.39,NW,311,4.0,12.0,42,0.00,,,0.00,meteohub,2013-10-07 19:39:00,
2013-10-07 14:44:00,69.6,46.8,29.38,NNW,331,0.0,12.0,44,0.00,,,0.00,meteohub,2013-10-07 19:44:00,
2013-10-07 14:49:00,70.0,45.9,29.38,West,281,1.0,12.0,42,0.00,,,0.00,meteohub,2013-10-07 19:49:00,
2013-10-07 14:54:00,70.0,45.1,29.39,WNW,303,4.0,12.0,41,0.00,,,0.00,meteohub,2013-10-07 19:54:00,
2013-10-07 14:59:00,70.0,45.9,29.38,WNW,286,10.0,12.0,42,0.00,,,0.00,meteohub,2013-10-07 19:59:00,
2013-10-07 15:04:00,70.0,45.1,29.38,SW,229,1.0,16.0,41,0.00,,,0.00,meteohub,2013-10-07 20:04:00,
2013-10-07 15:09:00,70.3,45.5,29.38,West,275,4.0,16.0,41,0.00,,,0.00,meteohub,2013-10-07 20:09:00,
2013-10-07 15:14:00,70.5,45.7,29.38,NW,323,0.0,16.0,41,0.00,,,0.00,meteohub,2013-10-07 20:14:00,
2013-10-07 15:19:00,70.7,45.1,29.38,WNW,292,0.0,14.0,40,0.00,,,0.00,meteohub,2013-10-07 20:19:00,
2013-10-07 15:24:00,70.7,45.9,29.38,NW,325,2.0,13.0,41,0.00,,,0.00,meteohub,2013-10-07 20:24:00,
2013-10-07 15:29:00,70.9,44.8,29.38,NNW,331,1.0,13.0,39,0.00,,,0.00,meteohub,2013-10-07 20:29:00,
2013-10-07 15:35:00,70.9,45.3,29.38,West,261,6.0,13.0,40,0.00,,,0.00,meteohub,2013-10-07 20:35:00,
2013-10-07 15:40:00,71.1,45.5,29.38,WNW,301,4.0,13.0,40,0.00,,,0.00,meteohub,2013-10-07 20:40:00,
2013-10-07 15:45:00,71.2,45.0,29.37,NW,318,5.0,13.0,39,0.00,,,0.00,meteohub,2013-10-07 20:45:00,
2013-10-07 15:51:00,71.1,44.8,29.37,WSW,248,1.0,12.0,39,0.00,,,0.00,meteohub,2013-10-07 20:51:00,
2013-10-07 15:56:00,71.1,45.5,29.37,West,275,4.0,12.0,40,0.00,,,0.00,meteohub,2013-10-07 20:56:00,
2013-10-07 16:01:00,71.2,45.7,29.37,West,262,0.0,12.0,40,0.00,,,0.00,meteohub,2013-10-07 21:01:00,
2013-10-07 16:06:00,71.4,45.1,29.37,NW,311,5.0,12.0,39,0.00,,,0.00,meteohub,2013-10-07 21:06:00,
2013-10-07 16:11:00,71.2,45.0,29.37,WSW,237,0.0,10.0,39,0.00,,,0.00,meteohub,2013-10-07 21:11:00,
2013-10-07 16:16:00,71.2,45.0,29.37,WNW,297,1.0,10.0,39,0.00,,,0.00,meteohub,2013-10-07 21:16:00,
2013-10-07 16:21:00,71.2,44.2,29.37,North,355,2.0,13.0,38,0.00,,,0.00,meteohub,2013-10-07 21:21:00,
2013-10-07 16:26:00,71.2,45.7,29.37,NNW,331,4.0,13.0,40,0.00,,,0.00,meteohub,2013-10-07 21:26:00,
2013-10-07 16:31:00,71.1,44.8,29.37,NW,320,2.0,12.0,39,0.00,,,0.00,meteohub,2013-10-07 21:31:00,
2013-10-07 16:36:00,71.2,45.0,29.36,West,271,0.0,12.0,39,0.00,,,0.00,meteohub,2013-10-07 21:36:00,
2013-10-07 16:41:00,71.2,45.0,29.36,West,271,11.0,12.0,39,0.00,,,0.00,meteohub,2013-10-07 21:41:00,
2013-10-07 16:46:00,71.2,45.0,29.36,NW,309,0.0,11.0,39,0.00,,,0.00,meteohub,2013-10-07 21:46:00,
2013-10-07 16:51:00,71.2,45.0,29.36,NW,317,3.0,11.0,39,0.00,,,0.00,meteohub,2013-10-07 21:51:00,
2013-10-07 16:56:00,71.2,45.0,29.36,NW,321,2.0,11.0,39,0.00,,,0.00,meteohub,2013-10-07 21:56:00,
2013-10-07 17:01:00,71.1,44.8,29.36,NW,325,6.0,11.0,39,0.00,,,0.00,meteohub,2013-10-07 22:01:00,
2013-10-07 17:06:00,71.1,44.8,29.36,WSW,257,0.0,11.0,39,0.00,,,0.00,meteohub,2013-10-07 22:06:00,
2013-10-07 17:11:00,71.1,45.5,29.36,NW,306,1.0,11.0,40,0.00,,,0.00,meteohub,2013-10-07 22:11:00,
2013-10-07 17:16:00,71.1,45.5,29.36,West,274,2.0,9.0,40,0.00,,,0.00,meteohub,2013-10-07 22:16:00,
2013-10-07 17:21:00,70.9,45.3,29.36,West,267,0.0,7.0,40,0.00,,,0.00,meteohub,2013-10-07 22:21:00,
2013-10-07 17:26:00,70.7,45.1,29.36,West,279,0.0,9.0,40,0.00,,,0.00,meteohub,2013-10-07 22:26:00,
2013-10-07 17:31:00,70.5,45.7,29.36,WSW,254,0.0,9.0,41,0.00,,,0.00,meteohub,2013-10-07 22:31:00,
2013-10-07 17:36:00,70.5,45.7,29.37,WSW,254,0.0,9.0,41,0.00,,,0.00,meteohub,2013-10-07 22:36:00,
2013-10-07 17:41:00,70.5,45.7,29.37,West,267,3.0,8.0,41,0.00,,,0.00,meteohub,2013-10-07 22:41:00,
2013-10-07 17:46:00,70.5,45.7,29.37,SW,235,0.0,8.0,41,0.00,,,0.00,meteohub,2013-10-07 22:46:00,
2013-10-07 17:51:00,70.5,45.7,29.37,West,273,0.0,7.0,41,0.00,,,0.00,meteohub,2013-10-07 22:51:00,
2013-10-07 17:56:00,70.3,46.2,29.37,West,274,0.0,6.0,42,0.00,,,0.00,meteohub,2013-10-07 22:56:00,
2013-10-07 18:01:00,70.3,45.5,29.37,WSW,239,0.0,6.0,41,0.00,,,0.00,meteohub,2013-10-07 23:01:00,
2013-10-07 18:06:00,70.2,46.0,29.37,WSW,241,0.0,4.0,42,0.00,,,0.00,meteohub,2013-10-07 23:06:00,
2013-10-07 18:11:00,69.8,46.2,29.37,WSW,244,0.0,5.0,43,0.00,,,0.00,meteohub,2013-10-07 23:11:00,
2013-10-07 18:16:00,69.4,46.0,29.37,WSW,244,0.0,5.0,43,0.00,,,0.00,meteohub,2013-10-07 23:16:00,
2013-10-07 18:21:00,69.1,46.2,29.37,WSW,244,0.0,5.0,44,0.00,,,0.00,meteohub,2013-10-07 23:21:00,
2013-10-07 18:27:00,68.7,46.6,29.38,WSW,245,0.0,3.0,45,0.00,,,0.00,meteohub,2013-10-07 23:27:00,
2013-10-07 18:32:00,68.4,46.8,29.38,WSW,245,0.0,3.0,46,0.00,,,0.00,meteohub,2013-10-07 23:32:00,
2013-10-07 18:37:00,68.0,46.4,29.38,WSW,245,0.0,3.0,46,0.00,,,0.00,meteohub,2013-10-07 23:37:00,
2013-10-07 18:42:00,67.6,46.8,29.38,WSW,248,0.0,1.0,47,0.00,,,0.00,meteohub,2013-10-07 23:42:00,
2013-10-07 18:47:00,67.3,46.9,29.38,WSW,248,0.0,3.0,48,0.00,,,0.00,meteohub,2013-10-07 23:47:00,
2013-10-07 18:52:00,66.7,46.4,29.38,WSW,248,0.0,3.0,48,0.00,,,0.00,meteohub,2013-10-07 23:52:00,
2013-10-07 18:57:00,66.4,46.6,29.38,WSW,248,0.0,0.0,49,0.00,,,0.00,meteohub,2013-10-07 23:57:00,
2013-10-07 19:02:00,66.0,46.8,29.38,WSW,248,0.0,1.0,50,0.00,,,0.00,meteohub,2013-10-08 00:02:00,
2013-10-07 19:07:00,65.7,47.1,29.38,WSW,248,0.0,1.0,51,0.00,,,0.00,meteohub,2013-10-08 00:07:00,
2013-10-07 19:12:00,65.3,47.3,29.39,WSW,248,0.0,1.0,52,0.00,,,0.00,meteohub,2013-10-08 00:12:00,
2013-10-07 19:17:00,64.8,47.3,29.39,WSW,248,0.0,0.0,53,0.00,,,0.00,meteohub,2013-10-08 00:17:00,
2013-10-07 19:22:00,64.4,47.5,29.39,WSW,248,0.0,0.0,54,0.00,,,0.00,meteohub,2013-10-08 00:22:00,
2013-10-07 19:27:00,63.9,46.9,29.39,WSW,248,0.0,0.0,54,0.00,,,0.00,meteohub,2013-10-08 00:27:00,
2013-10-07 19:32:00,63.7,47.3,29.39,WSW,248,0.0,0.0,55,0.00,,,0.00,meteohub,2013-10-08 00:32:00,
2013-10-07 19:37:00,63.1,46.8,29.39,WSW,248,0.0,0.0,55,0.00,,,0.00,meteohub,2013-10-08 00:37:00,
2013-10-07 19:42:00,63.0,46.9,29.39,WSW,248,0.0,0.0,56,0.00,,,0.00,meteohub,2013-10-08 00:42:00,
2013-10-07 19:47:00,62.8,47.3,29.40,WSW,248,0.0,0.0,57,0.00,,,0.00,meteohub,2013-10-08 00:47:00,
2013-10-07 19:52:00,62.4,46.9,29.40,WSW,248,0.0,0.0,57,0.00,,,0.00,meteohub,2013-10-08 00:52:00,
2013-10-07 19:57:00,62.2,46.8,29.40,WSW,248,0.0,0.0,57,0.00,,,0.00,meteohub,2013-10-08 00:57:00,
2013-10-07 20:02:00,62.1,47.1,29.40,WSW,248,0.0,0.0,58,0.00,,,0.00,meteohub,2013-10-08 01:02:00,
2013-10-07 20:07:00,61.9,46.9,29.40,WSW,248,0.0,0.0,58,0.00,,,0.00,meteohub,2013-10-08 01:07:00,
2013-10-07 20:12:00,61.5,47.1,29.40,WSW,238,0.0,0.0,59,0.00,,,0.00,meteohub,2013-10-08 01:12:00,
2013-10-07 20:17:00,61.2,47.1,29.40,WSW,238,0.0,3.0,60,0.00,,,0.00,meteohub,2013-10-08 01:17:00,
2013-10-07 20:22:00,61.0,46.9,29.41,WSW,238,0.0,3.0,60,0.00,,,0.00,meteohub,2013-10-08 01:22:00,
2013-10-07 20:27:00,61.0,47.5,29.41,WSW,238,0.0,3.0,61,0.00,,,0.00,meteohub,2013-10-08 01:27:00,
2013-10-07 20:32:00,60.6,47.1,29.41,WSW,238,0.0,2.0,61,0.00,,,0.00,meteohub,2013-10-08 01:32:00,
2013-10-07 20:37:00,60.4,47.3,29.41,WSW,238,0.0,2.0,62,0.00,,,0.00,meteohub,2013-10-08 01:37:00,
2013-10-07 20:42:00,60.3,47.1,29.41,WSW,238,0.0,0.0,62,0.00,,,0.00,meteohub,2013-10-08 01:42:00,
2013-10-07 20:47:00,60.1,47.5,29.42,WSW,238,0.0,0.0,63,0.00,,,0.00,meteohub,2013-10-08 01:47:00,
2013-10-07 20:52:00,59.9,47.7,29.42,SW,220,0.0,0.0,64,0.00,,,0.00,meteohub,2013-10-08 01:52:00,
2013-10-07 20:57:00,59.7,47.5,29.42,SW,220,0.0,2.0,64,0.00,,,0.00,meteohub,2013-10-08 01:57:00,
2013-10-07 21:02:00,59.5,47.3,29.42,SW,220,0.0,2.0,64,0.00,,,0.00,meteohub,2013-10-08 02:02:00,
2013-10-07 21:07:00,59.4,47.7,29.42,SW,220,0.0,2.0,65,0.00,,,0.00,meteohub,2013-10-08 02:07:00,
2013-10-07 21:12:00,59.2,47.5,29.42,SW,222,0.0,2.0,65,0.00,,,0.00,meteohub,2013-10-08 02:12:00,
2013-10-07 21:17:00,59.2,46.9,29.42,SW,226,0.0,2.0,64,0.00,,,0.00,meteohub,2013-10-08 02:17:00,
2013-10-07 21:22:00,59.0,47.3,29.42,SW,226,0.0,2.0,65,0.00,,,0.00,meteohub,2013-10-08 02:22:00,
2013-10-07 21:27:00,58.8,47.1,29.42,SW,226,0.0,4.0,65,0.00,,,0.00,meteohub,2013-10-08 02:27:00,
2013-10-07 21:32:00,58.6,46.9,29.42,SW,226,0.0,4.0,65,0.00,,,0.00,meteohub,2013-10-08 02:32:00,
2013-10-07 21:37:00,58.6,47.3,29.42,SW,219,0.0,3.0,66,0.00,,,0.00,meteohub,2013-10-08 02:37:00,
2013-10-07 21:42:00,58.5,47.1,29.42,SW,220,0.0,3.0,66,0.00,,,0.00,meteohub,2013-10-08 02:42:00,
2013-10-07 21:47:00,58.3,46.9,29.42,SW,217,0.0,3.0,66,0.00,,,0.00,meteohub,2013-10-08 02:47:00,
2013-10-07 21:52:00,58.3,46.9,29.42,SW,217,0.0,4.0,66,0.00,,,0.00,meteohub,2013-10-08 02:52:00,
2013-10-07 21:57:00,58.3,46.9,29.42,WSW,239,0.0,4.0,66,0.00,,,0.00,meteohub,2013-10-08 02:57:00,
2013-10-07 22:02:00,58.1,46.8,29.42,SW,234,0.0,5.0,66,0.00,,,0.00,meteohub,2013-10-08 03:02:00,
2013-10-07 22:07:00,58.1,46.8,29.42,SW,222,0.0,5.0,66,0.00,,,0.00,meteohub,2013-10-08 03:07:00,
2013-10-07 22:12:00,58.1,47.1,29.43,SW,224,0.0,5.0,67,0.00,,,0.00,meteohub,2013-10-08 03:12:00,
2013-10-07 22:17:00,57.9,46.9,29.43,SW,224,0.0,5.0,67,0.00,,,0.00,meteohub,2013-10-08 03:17:00,
2013-10-07 22:22:00,57.9,46.9,29.43,SW,227,0.0,4.0,67,0.00,,,0.00,meteohub,2013-10-08 03:22:00,
2013-10-07 22:27:00,57.7,46.9,29.43,SW,227,1.0,3.0,67,0.00,,,0.00,meteohub,2013-10-08 03:27:00,
2013-10-07 22:32:00,57.7,47.3,29.43,SW,224,0.0,3.0,68,0.00,,,0.00,meteohub,2013-10-08 03:32:00,
2013-10-07 22:37:00,57.6,47.1,29.43,SW,226,0.0,3.0,68,0.00,,,0.00,meteohub,2013-10-08 03:37:00,
2013-10-07 22:42:00,57.6,47.1,29.43,SW,227,0.0,3.0,68,0.00,,,0.00,meteohub,2013-10-08 03:42:00,
2013-10-07 22:47:00,57.4,47.3,29.43,SW,228,0.0,3.0,69,0.00,,,0.00,meteohub,2013-10-08 03:47:00,
2013-10-07 22:52:00,57.4,47.3,29.43,SW,228,0.0,2.0,69,0.00,,,0.00,meteohub,2013-10-08 03:52:00,
2013-10-07 22:57:00,57.2,47.5,29.44,SW,228,0.0,2.0,70,0.00,,,0.00,meteohub,2013-10-08 03:57:00,
2013-10-07 23:01:00,57.0,47.3,29.44,SW,228,0.0,2.0,70,0.00,,,0.00,meteohub,2013-10-08 04:01:00,
2013-10-07 23:02:00,57.0,47.3,29.44,SW,228,0.0,2.0,70,0.00,,,0.00,meteohub,2013-10-08 04:02:00,
2013-10-07 23:04:00,57.0,47.3,29.44,SW,228,0.0,2.0,70,0.00,,,0.00,meteohub,2013-10-08 04:04:00,
2013-10-07 23:09:00,56.8,47.1,29.44,SW,227,0.0,0.0,70,0.00,,,0.00,meteohub,2013-10-08 04:09:00,
2013-10-07 23:14:00,56.7,47.3,29.44,SW,227,0.0,2.0,71,0.00,,,0.00,meteohub,2013-10-08 04:14:00,
2013-10-07 23:19:00,56.7,47.7,29.44,SW,228,0.0,2.0,72,0.00,,,0.00,meteohub,2013-10-08 04:19:00,
2013-10-07 23:24:00,56.5,47.5,29.44,SW,228,0.0,3.0,72,0.00,,,0.00,meteohub,2013-10-08 04:24:00,
2013-10-07 23:29:00,56.5,47.5,29.44,WSW,242,0.0,3.0,72,0.00,,,0.00,meteohub,2013-10-08 04:29:00,
2013-10-07 23:34:00,56.3,47.5,29.44,SW,226,1.0,4.0,72,0.00,,,0.00,meteohub,2013-10-08 04:34:00,
2013-10-07 23:39:00,56.3,47.5,29.44,SW,223,0.0,4.0,72,0.00,,,0.00,meteohub,2013-10-08 04:39:00,
2013-10-07 23:44:00,56.3,47.8,29.44,SSW,212,0.0,4.0,73,0.00,,,0.00,meteohub,2013-10-08 04:44:00,
2013-10-07 23:49:00,56.3,47.5,29.44,SW,223,0.0,3.0,72,0.00,,,0.00,meteohub,2013-10-08 04:49:00,
2013-10-07 23:54:00,56.3,47.5,29.44,SSW,207,0.0,4.0,72,0.00,,,0.00,meteohub,2013-10-08 04:54:00,
2013-10-07 23:59:00,56.3,47.8,29.44,SSW,205,1.0,4.0,73,0.00,,,0.00,meteohub,2013-10-08 04:59:00,